Location: Lane
(33.5226°N, 79.8788°W)
Time: 08:15:24
(UTC+00:00)

Vanguard 2 - Pass Details

Date: 03 October 2022
Orbit: 553 x 2932 km, 32.9° (Epoch: 08 December)

Event Time Altitude Azimuth Distance (km) Brightness Sun altitude
Rises 21:03:57 0° 275° (W) 5,519 12.9 22.9°
Reaches altitude 10° 21:07:06 10° 275° (W) 4,776 12.8 22.3°
Maximum altitude 21:22:00 85° 190° (S) 2,825 10.8 19.4°
Drops below altitude 10° 21:40:07 10° 104° (ESE) 5,650 11.5 15.8°
Sets 21:44:15 0° 104° (ESE) 6,530 11.7 14.9°
